Wind_Speed
19 19 20 20 20 20 21 21 22 23 24 25 26 27 28 29 30 31 32 33 35 35 36 37 37 37 37 36 36 35 35 34 34 33 33 33 32 32 31 31 30 29 28
22 22 22 23 23 23 23 24 24 25 26 27 28 29 30 31 32 33 35 36 37 38 39 39 39 38 38 37 37 36 35 35 34 34 33 33 33 32 32 32 31 30 29
25 25 25 26 25 25 26 26 27 28 29 30 30 31 32 33 34 36 37 39 40 41 41 41 41 40 39 38 37 37 36 36 35 34 34 34 33 33 33 33 33 32 31
28 28 28 29 28 28 28 29 30 30 31 32 33 34 35 36 37 38 40 41 42 43 43 42 41 41 40 39 38 37 37 36 36 35 34 34 35 35 35 35 34 34 34
31 30 30 31 31 31 31 32 33 33 34 34 35 36 37 38 39 41 43 44 44 45 44 43 42 42 41 39 38 38 37 37 36 36 36 36 36 36 37 37 36 36 36
34 33 33 33 34 34 34 34 35 36 36 37 38 38 39 40 41 43 45 46 46 45 45 44 43 42 41 40 39 38 38 37 37 38 38 39 39 39 39 39 39 38 38
37 36 36 36 36 36 36 37 38 38 39 40 41 41 41 42 43 45 46 47 46 45 45 44 43 42 41 41 40 39 39 39 40 40 40 40 41 41 41 41 41 41 41
40 39 39 38 38 39 39 39 40 41 41 42 43 44 43 43 44 45 47 47 46 45 44 44 43 42 42 42 41 41 41 41 42 42 42 42 43 43 43 43 43 43 43
43 42 42 41 41 41 41 41 42 43 43 44 44 46 46 46 46 45 45 45 45 45 44 44 43 43 43 42 42 42 42 43 43 43 43 43 44 43 43 44 45 46 46
45 44 43 43 42 43 43 43 44 44 45 45 46 46 48 49 49 47 45 43 43 43 43 43 44 43 43 43 43 43 43 44 44 43 43 44 44 44 44 45 46 46 47
46 45 44 44 44 44 44 44 45 45 46 47 47 47 48 49 49 48 46 44 43 43 43 43 43 42 43 43 43 44 44 44 43 43 43 43 43 44 44 45 46 47 47
47 46 46 46 46 46 45 45 46 46 47 47 48 48 48 48 47 46 45 44 43 43 43 43 43 43 43 44 44 44 44 43 43 42 41 40 41 42 43 44 44 45 45
47 47 47 47 47 47 46 47 47 47 48 48 48 48 48 47 46 45 44 44 43 42 42 42 43 43 43 44 44 44 43 42 41 39 38 38 38 40 40 41 41 43 45
48 48 48 47 47 47 47 47 47 47 48 48 48 48 47 46 45 44 44 43 42 42 42 42 42 43 43 43 43 42 41 39 38 37 35 35 36 36 36 36 37 39 41
48 48 48 48 48 48 47 48 48 48 48 48 47 46 46 44 43 43 43 43 42 41 41 41 41 41 42 41 40 39 37 36 35 34 33 33 33 33 33 32 34 34 35
48 48 48 47 47 47 48 48 48 48 47 46 46 45 44 42 42 42 42 41 41 40 40 40 40 40 40 39 38 36 35 34 32 32 31 30 31 31 32 30 30 30 32
49 49 48 48 48 47 47 47 46 46 45 45 44 43 42 41 41 40 40 40 39 39 39 38 38 38 37 37 35 34 33 32 31 31 30 29 29 29 28 28 28 29 29
50 49 49 48 47 46 46 46 45 45 44 43 42 41 40 40 39 38 38 38 37 37 37 37 37 36 36 35 34 32 32 31 31 30 29 28 28 27 27 27 28 27 28
48 48 47 47 46 45 45 44 43 43 41 41 40 39 38 38 37 37 36 36 36 36 36 36 36 35 35 33 33 32 32 31 31 30 29 28 28 27 28 28 28 29 28
45 45 45 44 44 43 43 41 40 39 38 38 37 36 36 35 35 34 34 34 34 34 34 34 34 34 33 33 33 32 32 31 31 31 30 30 29 29 29 29 29 29 30
42 42 42 41 41 40 40 38 38 36 36 35 34 34 34 33 33 32 32 33 33 33 33 33 33 33 33 33 32 32 32 32 32 32 32 32 31 31 31 31 32 32 33
40 40 39 39 38 38 37 36 35 34 33 33 32 31 31 31 31 31 31 32 32 33 33 33 33 33 33 33 32 33 33 33 33 34 34 34 34 34 34 35 35 36 36
37 37 36 36 36 35 35 34 33 31 31 30 30 29 29 29 30 30 31 32 32 32 32 33 33 33 33 33 33 34 34 35 35 35 36 36 36 37 37 38 38 39 40
34 35 34 34 34 33 32 31 30 29 29 29 28 28 28 28 29 30 30 31 31 32 32 33 33 34 34 35 35 35 36 36 37 37 37 38 38 39 40 41 41 42 43
32 32 32 32 31 30 29 29 28 28 27 27 27 28 28 29 29 30 30 31 32 32 33 34 34 35 35 36 37 37 38 38 38 39 39 40 41 42 42 43 44 44 45
30 30 30 29 29 28 28 27 27 27 27 28 28 28 29 29 30 31 31 32 33 33 34 35 36 36 37 38 38 39 39 40 40 41 41 42 43 44 45 46 46 47 47
Wind_Direction
277 281 285 287 291 294 296 297 298 298 299 300 301 303 304 305 306 308 309 309 309 309 310 309 308 307 306 306 305 303 302 301 300 299 298 296 294 292 289 287 286 283 280
276 279 283 286 289 291 293 294 295 296 297 298 299 301 302 303 305 306 307 308 308 308 308 308 307 306 305 304 303 302 300 299 298 296 295 293 292 290 288 286 284 282 279
275 278 281 283 286 289 290 292 293 294 295 296 297 299 300 302 303 305 306 306 307 307 307 307 306 305 304 303 302 300 299 298 296 294 293 291 290 288 286 284 282 280 278
274 277 280 282 285 287 289 290 291 292 294 294 295 297 299 301 303 304 305 305 306 306 306 305 305 304 303 301 300 299 297 296 294 293 291 290 289 287 285 283 281 279 276
273 276 279 281 284 286 287 288 290 291 292 293 294 296 298 300 302 303 304 305 305 305 304 304 303 302 302 300 299 298 296 294 293 292 290 289 287 285 283 281 279 277 275
273 276 278 280 282 284 286 287 288 289 290 291 293 295 297 299 301 302 303 304 304 303 302 302 301 301 300 299 297 296 295 293 292 291 289 287 286 285 283 280 277 275 273
273 275 277 279 281 282 284 285 287 288 289 291 292 294 296 298 300 301 302 302 301 300 300 300 299 299 298 297 296 294 293 293 292 291 289 287 285 283 281 278 275 273 271
273 275 277 278 280 281 283 284 285 287 288 290 292 293 295 296 298 300 300 300 299 298 298 298 297 296 296 295 295 294 293 293 292 291 289 287 285 283 280 277 274 271 268
272 274 276 277 279 280 282 283 284 286 288 289 291 293 294 296 297 298 297 297 296 296 296 296 295 295 294 294 294 294 293 293 292 291 289 287 285 282 280 277 273 269 266
270 272 274 276 277 279 281 282 284 285 287 289 290 292 294 296 297 298 296 295 294 294 294 294 294 294 293 294 294 294 295 294 293 291 289 287 285 283 281 278 272 269 266
268 270 272 273 276 278 280 281 283 285 287 289 290 292 293 295 296 296 296 295 295 294 293 293 293 293 294 295 295 295 295 295 293 292 290 287 285 284 282 279 274 269 266
267 268 270 272 275 277 279 281 283 285 287 289 290 292 293 294 294 295 295 295 295 294 293 293 293 294 295 295 296 296 296 295 294 292 289 287 285 285 284 280 276 270 266
266 268 270 273 275 277 279 281 283 285 287 288 290 291 292 293 293 293 294 295 295 294 293 293 294 295 296 296 297 297 297 296 294 292 289 287 285 285 284 281 276 269 265
267 269 271 273 274 277 279 281 282 284 286 287 289 291 291 291 291 292 293 294 295 294 294 294 295 296 296 297 298 298 298 297 295 293 290 288 287 286 285 281 278 269 264
267 269 271 272 274 277 278 280 282 284 285 287 288 289 289 290 290 291 292 293 294 294 294 295 296 296 297 298 299 298 298 297 297 295 293 290 289 287 285 283 279 272 266
267 269 270 272 274 276 278 280 282 284 285 286 287 288 288 289 290 291 292 293 294 294 295 296 296 296 297 298 298 299 298 298 298 298 295 294 291 289 287 285 282 275 270
267 269 271 272 274 276 278 280 282 283 284 285 286 286 287 289 290 291 292 293 294 295 296 296 296 297 297 299 297 298 299 299 298 298 296 295 293 289 288 285 284 279 273
267 269 270 272 274 276 278 279 281 282 283 284 284 286 287 288 290 291 292 293 294 296 296 297 297 297 298 298 297 297 298 299 299 299 298 296 295 291 288 287 286 284 278
268 270 271 272 274 275 277 278 279 280 281 282 283 284 286 287 289 291 292 294 295 296 297 298 298 297 297 297 296 296 297 298 298 299 298 297 296 294 291 288 286 285 280
268 269 270 272 273 274 275 276 278 278 279 281 282 284 285 287 289 291 293 295 296 297 298 298 298 298 298 297 296 296 296 297 298 298 298 297 295 294 291 289 287 284 280
266 267 269 270 271 273 273 274 275 276 278 280 281 283 284 287 289 291 294 295 297 298 298 298 298 298 298 297 297 296 296 297 297 297 297 296 294 293 292 290 288 284 281
265 266 267 268 269 270 271 272 273 274 276 278 280 282 285 288 290 292 294 296 298 298 299 299 299 298 298 298 297 297 297 297 297 296 296 295 293 292 291 290 288 286 283
265 265 265 267 267 268 269 270 271 272 275 277 280 283 285 288 291 293 295 296 298 298 299 299 298 298 298 298 297 297 297 297 296 296 296 294 293 292 291 290 288 286 284
264 264 264 265 265 266 266 267 269 271 274 277 280 283 286 289 292 294 296 297 297 298 299 299 299 298 298 298 298 298 297 297 297 296 295 294 293 293 292 290 288 286 284
263 263 263 263 264 263 264 266 268 271 274 277 281 284 287 291 293 295 296 297 298 298 299 299 299 298 298 298 298 297 297 297 297 297 296 295 294 293 292 291 289 287 285
261 261 261 262 262 262 263 265 268 272 275 279 282 286 289 291 293 295 296 297 298 299 299 299 298 298 298 298 298 298 298 297 298 298 297 296 295 294 293 292 290 288 286
Height
5876 5876 5875 5875 5874 5874 5873 5872 5870 5869 5867 5866 5864 5862 5860 5857 5855 5852 5850 5847 5844 5841 5839 5836 5833 5830 5827 5824 5822 5819 5817 5815 5813 5811 5809 5807 5806 5805 5804 5803 5802 5802 5801
5871 5871 5871 5870 5870 5869 5869 5867 5866 5864 5863 5861 5859 5857 5854 5852 5849 5847 5844 5841 5838 5835 5832 5829 5826 5823 5820 5818 5815 5812 5810 5808 5806 5804 5802 5800 5799 5798 5797 5796 5795 5795 5795
5867 5866 5866 5866 5865 5865 5864 5862 5861 5859 5857 5856 5853 5851 5849 5846 5844 5841 5838 5834 5831 5828 5825 5822 5819 5816 5813 5810 5807 5805 5802 5800 5798 5796 5794 5793 5792 5790 5789 5789 5788 5788 5788
5861 5861 5861 5860 5860 5859 5858 5857 5855 5854 5852 5850 5848 5845 5843 5840 5837 5834 5831 5827 5824 5821 5818 5814 5811 5808 5806 5803 5800 5797 5795 5792 5790 5788 5787 5785 5784 5783 5782 5781 5780 5780 5780
5856 5856 5855 5854 5854 5853 5852 5851 5849 5848 5846 5843 5841 5839 5836 5833 5830 5826 5823 5819 5816 5813 5809 5806 5803 5800 5797 5794 5792 5789 5786 5784 5782 5780 5778 5777 5775 5774 5773 5772 5772 5772 5772
5849 5849 5849 5848 5847 5846 5845 5844 5843 5841 5839 5836 5834 5832 5829 5826 5822 5819 5815 5811 5808 5804 5800 5797 5794 5791 5788 5785 5783 5780 5778 5776 5773 5771 5769 5768 5766 5765 5764 5763 5763 5763 5763
5842 5842 5842 5841 5840 5840 5838 5837 5835 5833 5831 5829 5827 5825 5822 5819 5815 5811 5807 5803 5799 5795 5791 5788 5785 5782 5779 5776 5774 5771 5769 5767 5764 5762 5759 5758 5756 5755 5754 5753 5752 5753 5753
5834 5834 5834 5834 5833 5832 5831 5829 5827 5826 5824 5821 5818 5815 5814 5813 5808 5803 5798 5794 5790 5786 5782 5779 5775 5772 5769 5767 5764 5761 5759 5757 5754 5752 5749 5747 5745 5744 5742 5741 5741 5741 5742
5826 5826 5826 5825 5825 5824 5823 5821 5819 5817 5815 5813 5810 5807 5804 5803 5800 5797 5791 5786 5781 5776 5773 5769 5766 5763 5760 5757 5754 5752 5749 5746 5743 5741 5738 5735 5733 5732 5731 5729 5729 5729 5729
5818 5818 5817 5817 5816 5815 5814 5813 5811 5809 5807 5805 5802 5798 5795 5792 5789 5787 5784 5778 5773 5768 5763 5760 5756 5753 5750 5747 5744 5741 5738 5735 5732 5729 5726 5724 5721 5719 5718 5716 5715 5715 5716
5808 5809 5808 5808 5807 5806 5805 5804 5802 5800 5797 5795 5792 5789 5786 5782 5778 5775 5773 5769 5765 5760 5755 5751 5747 5743 5740 5737 5734 5730 5727 5723 5720 5717 5714 5711 5709 5706 5704 5702 5701 5701 5701
5799 5799 5799 5798 5798 5797 5796 5794 5792 5790 5788 5785 5782 5779 5776 5773 5769 5765 5762 5758 5755 5751 5746 5741 5737 5733 5730 5727 5723 5719 5716 5712 5709 5705 5702 5699 5697 5694 5691 5688 5687 5687 5687
5789 5789 5789 5788 5788 5787 5785 5784 5782 5780 5778 5775 5772 5769 5766 5762 5759 5755 5751 5748 5744 5741 5736 5731 5727 5723 5720 5716 5713 5709 5705 5701 5697 5694 5691 5688 5685 5682 5679 5676 5674 5673 5673
5778 5778 5778 5778 5777 5776 5775 5774 5772 5770 5767 5765 5762 5759 5755 5752 5748 5745 5741 5738 5734 5731 5726 5722 5718 5714 5710 5706 5702 5698 5694 5690 5686 5683 5679 5676 5673 5670 5667 5665 5663 5662 5662
5767 5767 5767 5767 5766 5766 5764 5763 5761 5759 5757 5754 5751 5748 5745 5742 5738 5735 5731 5727 5724 5721 5717 5713 5709 5704 5700 5696 5692 5688 5684 5680 5677 5673 5670 5666 5664 5661 5658 5656 5654 5653 5653
5756 5757 5756 5756 5756 5755 5754 5752 5750 5748 5746 5743 5741 5738 5735 5731 5728 5725 5721 5718 5714 5711 5707 5703 5699 5695 5691 5687 5683 5679 5676 5672 5668 5664 5661 5658 5655 5653 5650 5648 5647 5645 5645
5745 5745 5745 5745 5745 5744 5742 5741 5739 5737 5735 5732 5730 5727 5724 5721 5718 5715 5711 5708 5704 5701 5698 5694 5690 5686 5682 5679 5675 5671 5668 5664 5661 5657 5654 5651 5648 5645 5643 5641 5640 5638 5637
5734 5734 5734 5734 5733 5732 5731 5730 5728 5726 5724 5722 5720 5717 5714 5711 5708 5705 5702 5699 5695 5692 5689 5685 5681 5678 5674 5670 5667 5663 5660 5657 5653 5650 5646 5644 5641 5639 5637 5635 5633 5632 5631
5722 5723 5722 5722 5722 5721 5720 5719 5717 5715 5714 5712 5709 5707 5704 5702 5699 5696 5693 5690 5686 5683 5679 5676 5673 5669 5666 5662 5659 5656 5652 5649 5646 5643 5640 5637 5634 5632 5630 5628 5626 5625 5623
5711 5711 5711 5711 5710 5710 5709 5707 5706 5705 5703 5701 5699 5697 5695 5693 5690 5687 5684 5681 5678 5674 5671 5668 5664 5661 5658 5654 5651 5648 5645 5642 5639 5635 5632 5630 5627 5625 5623 5621 5619 5617 5616
5699 5700 5700 5699 5699 5699 5698 5697 5696 5695 5693 5692 5690 5688 5686 5684 5681 5678 5676 5672 5669 5666 5663 5660 5656 5653 5650 5646 5643 5640 5637 5634 5631 5628 5625 5622 5619 5617 5615 5612 5610 5609 5607
5688 5689 5689 5689 5688 5688 5688 5687 5686 5685 5684 5683 5681 5679 5677 5675 5673 5670 5667 5664 5661 5658 5655 5651 5648 5645 5641 5638 5635 5632 5628 5625 5622 5620 5616 5613 5610 5608 5605 5603 5601 5599 5597
5678 5678 5678 5678 5678 5678 5678 5677 5677 5676 5675 5674 5672 5671 5669 5667 5664 5661 5659 5656 5652 5649 5646 5643 5640 5636 5633 5630 5626 5623 5620 5616 5613 5610 5606 5603 5601 5598 5595 5592 5590 5587 5585
5668 5668 5669 5669 5669 5669 5669 5668 5668 5667 5667 5665 5664 5662 5660 5658 5655 5653 5650 5647 5644 5641 5638 5634 5631 5627 5624 5620 5617 5614 5610 5607 5603 5600 5596 5593 5590 5587 5583 5580 5577 5574 5572
5659 5659 5660 5660 5660 5660 5660 5660 5660 5659 5658 5657 5656 5654 5652 5649 5647 5644 5641 5638 5635 5632 5629 5625 5622 5618 5614 5611 5607 5604 5600 5596 5593 5589 5585 5581 5578 5574 5570 5567 5563 5560 5557
5651 5651 5651 5652 5652 5652 5652 5652 5652 5651 5650 5649 5647 5645 5643 5641 5638 5635 5632 5629 5626 5623 5620 5616 5612 5608 5604 5600 5597 5593 5589 5585 5581 5577 5573 5569 5565 5561 5557 5552 5548 5545 5541